Starlink 31535

operational
NORAD ID: 59504 Int'l Des: 2024-071 Owner: SPXS Country: US Constellation: starlink
LEOCIRCULAR

About Starlink 31535

Description loading...

Live Position

Loading 3D Globe...

Upcoming Passes

Altitude History

Altitude vs Time

uPlot chart will show altitude changes over time

Two-Line Element Set

1 59504U 24071W 25259.28972992 -.00002830 00000-0 -93312-4 0 9995
2 59504 43.0022 252.4212 0000600 291.3211 68.7577 15.27598515 81444
Epoch: Sep 16, 2025 • Age: 6 hours

Current Status

Altitude 492.3 km
Velocity 7.62 km/s
Sub-Earth Point -34.33°S, 13.7°E
Launch Date Apr 13, 2024
Age 1.4 years
Type internet

Technical Details

Classification Payload
Mass 730.00 kg
Dry Mass 700.00 kg
Total Mass 730.00 kg
Length 0.30 m
Diameter 4.10 m
Span 29.00 m
Shape Box + pan
Manufacturer SPXS
Bus Type Starlink V2M
Phase Status In Orbit
Owner/State SPXS/US

Large Constellations

Loading constellations...